Year,Month,Day,Hour,Minute,Value (Times are PST for temperature in C)
2015,06,07,00,00,20.40
2015,06,07,00,01,20.30
2015,06,07,00,02,20.30
2015,06,07,00,03,20.20
2015,06,07,00,04,20.20
2015,06,07,00,05,20.10
2015,06,07,00,06,20.10
2015,06,07,00,07,20.00
2015,06,07,00,08,20.00
2015,06,07,00,09,20.00
2015,06,07,00,10,19.90
2015,06,07,00,11,19.90
2015,06,07,00,12,19.90
2015,06,07,00,13,19.80
2015,06,07,00,14,19.80
2015,06,07,00,15,19.80
2015,06,07,00,16,19.80
2015,06,07,00,17,19.80
2015,06,07,00,18,19.70
2015,06,07,00,19,19.70
2015,06,07,00,20,19.70
2015,06,07,00,21,19.60
2015,06,07,00,22,19.60
2015,06,07,00,23,19.60
2015,06,07,00,24,19.60
2015,06,07,00,25,19.60
2015,06,07,00,26,19.50
2015,06,07,00,27,19.50
2015,06,07,00,28,19.50
2015,06,07,00,29,19.50
2015,06,07,00,30,19.50
2015,06,07,00,31,19.40
2015,06,07,00,32,19.40
2015,06,07,00,33,19.40
2015,06,07,00,34,19.40
2015,06,07,00,35,19.40
2015,06,07,00,36,19.40
2015,06,07,00,37,19.30
2015,06,07,00,38,19.30
2015,06,07,00,39,19.30
2015,06,07,00,40,19.30
2015,06,07,00,41,19.30
2015,06,07,00,42,19.30
2015,06,07,00,43,19.30
2015,06,07,00,44,19.30
2015,06,07,00,45,19.30
2015,06,07,00,46,19.30
2015,06,07,00,47,19.30
2015,06,07,00,48,19.30
2015,06,07,00,49,19.30
2015,06,07,00,50,19.30
2015,06,07,00,51,19.20
2015,06,07,00,52,19.20
2015,06,07,00,53,19.20
2015,06,07,00,54,19.10
2015,06,07,00,55,19.10
2015,06,07,00,56,19.00
2015,06,07,00,57,19.00
2015,06,07,00,58,18.90
2015,06,07,00,59,18.90
2015,06,07,01,00,18.90
2015,06,07,01,01,18.80
2015,06,07,01,02,18.80
2015,06,07,01,03,18.80
2015,06,07,01,04,18.80
2015,06,07,01,05,18.80
2015,06,07,01,06,18.70
2015,06,07,01,07,18.70
2015,06,07,01,08,18.70
2015,06,07,01,09,18.60
2015,06,07,01,10,18.60
2015,06,07,01,11,18.60
2015,06,07,01,12,18.60
2015,06,07,01,13,18.60
2015,06,07,01,14,18.50
2015,06,07,01,15,18.50
2015,06,07,01,16,18.50
2015,06,07,01,17,18.50
2015,06,07,01,18,18.50
2015,06,07,01,19,18.40
2015,06,07,01,20,18.40
2015,06,07,01,21,18.40
2015,06,07,01,22,18.40
2015,06,07,01,23,18.40
2015,06,07,01,24,18.40
2015,06,07,01,25,18.40
2015,06,07,01,26,18.40
2015,06,07,01,27,18.40
2015,06,07,01,28,18.30
2015,06,07,01,29,18.30
2015,06,07,01,30,18.30
2015,06,07,01,31,18.30
2015,06,07,01,32,18.30
2015,06,07,01,33,18.30
2015,06,07,01,34,18.30
2015,06,07,01,35,18.30
2015,06,07,01,36,18.20
2015,06,07,01,37,18.20
2015,06,07,01,38,18.20
2015,06,07,01,39,18.20
2015,06,07,01,40,18.20
2015,06,07,01,41,18.20
2015,06,07,01,42,18.20
2015,06,07,01,43,18.20
2015,06,07,01,44,18.10
2015,06,07,01,45,18.10
2015,06,07,01,46,18.10
2015,06,07,01,47,18.10
2015,06,07,01,48,18.10
2015,06,07,01,49,18.10
2015,06,07,01,50,18.00
2015,06,07,01,51,18.00
2015,06,07,01,52,17.90
2015,06,07,01,53,17.90
2015,06,07,01,54,17.90
2015,06,07,01,55,17.90
2015,06,07,01,56,17.80
2015,06,07,01,57,17.80
2015,06,07,01,58,17.80
2015,06,07,01,59,17.80
2015,06,07,02,00,17.80
2015,06,07,02,01,17.80
2015,06,07,02,02,17.70
2015,06,07,02,03,17.70
2015,06,07,02,04,17.70
2015,06,07,02,05,17.70
2015,06,07,02,06,17.70
2015,06,07,02,07,17.70
2015,06,07,02,08,17.70
2015,06,07,02,09,17.70
2015,06,07,02,10,17.70
2015,06,07,02,11,17.70
2015,06,07,02,12,17.70
2015,06,07,02,13,17.60
2015,06,07,02,14,17.60
2015,06,07,02,15,17.60
2015,06,07,02,16,17.60
2015,06,07,02,17,17.60
2015,06,07,02,18,17.60
2015,06,07,02,19,17.60
2015,06,07,02,20,17.60
2015,06,07,02,21,17.50
2015,06,07,02,22,17.50
2015,06,07,02,23,17.50
2015,06,07,02,24,17.50
2015,06,07,02,25,17.40
2015,06,07,02,26,17.40
2015,06,07,02,27,17.40
2015,06,07,02,28,17.40
2015,06,07,02,29,17.40
2015,06,07,02,30,17.40
2015,06,07,02,31,17.40
2015,06,07,02,32,17.40
2015,06,07,02,33,17.40
2015,06,07,02,34,17.40
2015,06,07,02,35,17.40
2015,06,07,02,36,17.30
2015,06,07,02,37,17.30
2015,06,07,02,38,17.30
2015,06,07,02,39,17.30
2015,06,07,02,40,17.30
2015,06,07,02,41,17.30
2015,06,07,02,42,17.30
2015,06,07,02,43,17.30
2015,06,07,02,44,17.20
2015,06,07,02,45,17.20
2015,06,07,02,46,17.20
2015,06,07,02,47,17.20
2015,06,07,02,48,17.20
2015,06,07,02,49,17.20
2015,06,07,02,50,17.20
2015,06,07,02,51,17.10
2015,06,07,02,52,17.10
2015,06,07,02,53,17.10
2015,06,07,02,54,17.10
2015,06,07,02,55,17.10
2015,06,07,02,56,17.10
2015,06,07,02,57,17.10
2015,06,07,02,58,17.10
2015,06,07,02,59,17.10
2015,06,07,03,00,17.10
2015,06,07,03,01,17.10
2015,06,07,03,02,17.10
2015,06,07,03,06,17.00
2015,06,07,03,07,17.00
2015,06,07,03,08,16.90
2015,06,07,03,09,16.90
2015,06,07,03,10,16.90
2015,06,07,03,11,16.90
2015,06,07,03,12,16.90
2015,06,07,03,13,16.90
2015,06,07,03,14,16.90
2015,06,07,03,15,16.90
2015,06,07,03,16,16.80
2015,06,07,03,17,16.80
2015,06,07,03,18,16.80
2015,06,07,03,19,16.80
2015,06,07,03,20,16.80
2015,06,07,03,21,16.80
2015,06,07,03,22,16.80
2015,06,07,03,23,16.80
2015,06,07,03,24,16.80
2015,06,07,03,25,16.70
2015,06,07,03,26,16.70
2015,06,07,03,27,16.70
2015,06,07,03,28,16.70
2015,06,07,03,29,16.70
2015,06,07,03,30,16.70
2015,06,07,03,31,16.70
2015,06,07,03,32,16.70
2015,06,07,03,33,16.60
2015,06,07,03,34,16.60
2015,06,07,03,35,16.70
2015,06,07,03,36,16.70
2015,06,07,03,37,16.70
2015,06,07,03,38,16.60
2015,06,07,03,39,16.60
2015,06,07,03,40,16.60
2015,06,07,03,41,16.60
2015,06,07,03,42,16.60
2015,06,07,03,43,16.60
2015,06,07,03,44,16.60
2015,06,07,03,45,16.60
2015,06,07,03,46,16.60
2015,06,07,03,47,16.60
2015,06,07,03,48,16.60
2015,06,07,03,49,16.60
2015,06,07,03,50,16.60
2015,06,07,03,51,16.60
2015,06,07,03,52,16.50
2015,06,07,03,53,16.60
2015,06,07,03,54,16.50
2015,06,07,03,55,16.50
2015,06,07,03,56,16.50
2015,06,07,03,57,16.50
2015,06,07,03,58,16.50
2015,06,07,03,59,16.40
2015,06,07,04,00,16.40
2015,06,07,04,01,16.50
2015,06,07,04,02,16.50
2015,06,07,04,03,16.50
2015,06,07,04,04,16.50
2015,06,07,04,05,16.50
2015,06,07,04,06,16.50
2015,06,07,04,07,16.50
2015,06,07,04,08,16.40
2015,06,07,04,09,16.40
2015,06,07,04,10,16.40
2015,06,07,04,11,16.30
2015,06,07,04,12,16.30
2015,06,07,04,13,16.30
2015,06,07,04,14,16.30
2015,06,07,04,15,16.40
2015,06,07,04,16,16.40
2015,06,07,04,17,16.40
2015,06,07,04,18,16.40
2015,06,07,04,19,16.40
2015,06,07,04,20,16.50
2015,06,07,04,21,16.50
2015,06,07,04,22,16.50
2015,06,07,04,23,16.50
2015,06,07,04,24,16.50
2015,06,07,04,25,16.50
2015,06,07,04,26,16.50
2015,06,07,04,27,16.50
2015,06,07,04,28,16.50
2015,06,07,04,29,16.50
2015,06,07,04,30,16.50
2015,06,07,04,31,16.50
2015,06,07,04,32,16.40
2015,06,07,04,33,16.40
2015,06,07,04,34,16.40
2015,06,07,04,35,16.40
2015,06,07,04,36,16.30
2015,06,07,04,37,16.30
2015,06,07,04,38,16.30
2015,06,07,04,39,16.30
2015,06,07,04,40,16.30
2015,06,07,04,41,16.20
2015,06,07,04,42,16.20
2015,06,07,04,43,16.20
2015,06,07,04,44,16.20
2015,06,07,04,45,16.20
2015,06,07,04,46,16.10
2015,06,07,04,47,16.10
2015,06,07,04,48,16.10
2015,06,07,04,49,16.10
2015,06,07,04,50,16.10
2015,06,07,04,51,16.10
2015,06,07,04,52,16.10
2015,06,07,04,53,16.00
2015,06,07,04,54,16.00
2015,06,07,04,55,16.00
2015,06,07,04,56,16.00
2015,06,07,04,57,15.90
2015,06,07,04,58,15.90
2015,06,07,04,59,15.90
2015,06,07,05,00,15.90
2015,06,07,05,01,15.90
2015,06,07,05,02,15.90
2015,06,07,05,03,15.90
2015,06,07,05,04,15.90
2015,06,07,05,05,15.90
2015,06,07,05,06,15.90
2015,06,07,05,07,15.80
2015,06,07,05,08,15.80
2015,06,07,05,09,15.80
2015,06,07,05,10,15.80
2015,06,07,05,11,15.80
2015,06,07,05,12,15.80
2015,06,07,05,13,15.80
2015,06,07,05,14,15.80
2015,06,07,05,15,15.80
2015,06,07,05,16,15.80
2015,06,07,05,17,15.80
2015,06,07,05,18,15.80
2015,06,07,05,19,15.80
2015,06,07,05,20,15.70
2015,06,07,05,21,15.70
2015,06,07,05,22,15.70
2015,06,07,05,23,15.70
2015,06,07,05,24,15.70
2015,06,07,05,25,15.70
2015,06,07,05,26,15.70
2015,06,07,05,27,15.70
2015,06,07,05,28,15.70
2015,06,07,05,29,15.70
2015,06,07,05,30,15.70
2015,06,07,05,31,15.70
2015,06,07,05,32,15.70
2015,06,07,05,33,15.70
2015,06,07,05,34,15.70
2015,06,07,05,35,15.60
2015,06,07,05,36,15.60
2015,06,07,05,37,15.60
2015,06,07,05,38,15.60
2015,06,07,05,39,15.60
2015,06,07,05,40,15.60
2015,06,07,05,41,15.60
2015,06,07,05,42,15.60
2015,06,07,05,43,15.50
2015,06,07,05,44,15.50
2015,06,07,05,45,15.50
2015,06,07,05,46,15.50
2015,06,07,05,47,15.50
2015,06,07,05,48,15.50
2015,06,07,05,49,15.50
2015,06,07,05,50,15.50
2015,06,07,05,51,15.50
2015,06,07,05,52,15.50
2015,06,07,05,53,15.50
2015,06,07,05,54,15.50
2015,06,07,05,55,15.40
2015,06,07,05,56,15.40
2015,06,07,05,57,15.40
2015,06,07,05,58,15.40
2015,06,07,05,59,15.40
2015,06,07,06,00,15.40
2015,06,07,06,01,15.40
2015,06,07,06,02,15.40
2015,06,07,06,03,15.40
2015,06,07,06,04,15.40
2015,06,07,06,05,15.50
2015,06,07,06,06,15.50
2015,06,07,06,07,15.50
2015,06,07,06,08,15.50
2015,06,07,06,09,15.50
2015,06,07,06,10,15.50
2015,06,07,06,11,15.50
2015,06,07,06,12,15.50
2015,06,07,06,13,15.50
2015,06,07,06,14,15.50
2015,06,07,06,15,15.50
2015,06,07,06,16,15.50
2015,06,07,06,17,15.50
2015,06,07,06,18,15.50
2015,06,07,06,19,15.50
2015,06,07,06,20,15.50
2015,06,07,06,21,15.50
2015,06,07,06,22,15.50
2015,06,07,06,23,15.50
2015,06,07,06,24,15.50
2015,06,07,06,25,15.50
2015,06,07,06,26,15.50
2015,06,07,06,27,15.60
2015,06,07,06,28,15.60
2015,06,07,06,29,15.70
2015,06,07,06,30,15.70
2015,06,07,06,31,15.70
2015,06,07,06,32,15.80
2015,06,07,06,33,15.90
2015,06,07,06,34,15.90
2015,06,07,06,35,16.00
2015,06,07,06,36,16.00
2015,06,07,06,37,16.10
2015,06,07,06,38,16.20
2015,06,07,06,39,16.20
2015,06,07,06,40,16.30
2015,06,07,06,41,16.30
2015,06,07,06,42,16.40
2015,06,07,06,43,16.40
2015,06,07,06,44,16.50
2015,06,07,06,45,16.50
2015,06,07,06,46,16.60
2015,06,07,06,47,16.70
2015,06,07,06,48,16.80
2015,06,07,06,49,16.80
2015,06,07,06,50,16.80
2015,06,07,06,51,16.90
2015,06,07,06,52,16.90
2015,06,07,06,53,17.00
2015,06,07,06,54,17.00
2015,06,07,06,55,17.10
2015,06,07,06,56,17.10
2015,06,07,06,57,17.20
2015,06,07,06,58,17.20
2015,06,07,06,59,17.30
2015,06,07,07,00,17.30
2015,06,07,07,01,17.40
2015,06,07,07,02,17.50
2015,06,07,07,03,17.50
2015,06,07,07,04,17.60
2015,06,07,07,05,17.60
2015,06,07,07,06,17.70
2015,06,07,07,07,17.80
2015,06,07,07,08,17.80
2015,06,07,07,09,17.80
2015,06,07,07,10,17.90
2015,06,07,07,11,17.90
2015,06,07,07,12,17.90
2015,06,07,07,13,18.00
2015,06,07,07,14,18.10
2015,06,07,07,15,18.10
2015,06,07,07,16,18.10
2015,06,07,07,17,18.20
2015,06,07,07,18,18.20
2015,06,07,07,19,18.30
2015,06,07,07,20,18.30
2015,06,07,07,21,18.40
2015,06,07,07,22,18.40
2015,06,07,07,23,18.50
2015,06,07,07,24,18.60
2015,06,07,07,25,18.70
2015,06,07,07,26,18.70
2015,06,07,07,27,18.80
2015,06,07,07,28,18.80
2015,06,07,07,29,18.80
2015,06,07,07,30,18.80
2015,06,07,07,31,18.80
2015,06,07,07,32,18.80
2015,06,07,07,33,18.80
2015,06,07,07,34,18.80
2015,06,07,07,35,18.80
2015,06,07,07,36,18.80
2015,06,07,07,37,18.80
2015,06,07,07,38,18.80
2015,06,07,07,39,18.90
2015,06,07,07,40,18.90
2015,06,07,07,41,18.90
2015,06,07,07,42,19.00
2015,06,07,07,43,19.00
2015,06,07,07,44,19.10
2015,06,07,07,45,19.10
2015,06,07,07,46,19.10
2015,06,07,07,47,19.10
2015,06,07,07,48,19.20
2015,06,07,07,49,19.20
2015,06,07,07,50,19.20
2015,06,07,07,51,19.20
2015,06,07,07,52,19.20
2015,06,07,07,53,19.20
2015,06,07,07,54,19.20
2015,06,07,07,55,19.10
2015,06,07,07,56,19.10
2015,06,07,07,57,19.20
2015,06,07,07,58,19.20
2015,06,07,07,59,19.20
2015,06,07,08,00,19.30
2015,06,07,08,01,19.30
2015,06,07,08,02,19.40
2015,06,07,08,03,19.40
2015,06,07,08,04,19.40
2015,06,07,08,05,19.40
2015,06,07,08,06,19.40
2015,06,07,08,07,19.50
2015,06,07,08,08,19.60
2015,06,07,08,09,19.70
2015,06,07,08,10,19.70
2015,06,07,08,11,19.80
2015,06,07,08,12,19.80
2015,06,07,08,13,19.80
2015,06,07,08,14,19.90
2015,06,07,08,15,19.90
2015,06,07,08,16,20.00
2015,06,07,08,17,20.10
2015,06,07,08,18,20.20
2015,06,07,08,19,20.20
2015,06,07,08,20,20.30
2015,06,07,08,21,20.40
2015,06,07,08,22,20.40
2015,06,07,08,23,20.40
2015,06,07,08,24,20.40
2015,06,07,08,25,20.40
2015,06,07,08,26,20.40
2015,06,07,08,27,20.40
2015,06,07,08,28,20.40
2015,06,07,08,29,20.50
2015,06,07,08,30,20.50
2015,06,07,08,31,20.60
2015,06,07,08,32,20.60
2015,06,07,08,33,20.70
2015,06,07,08,34,20.80
2015,06,07,08,35,20.80
2015,06,07,08,36,20.80
2015,06,07,08,37,20.90
2015,06,07,08,38,20.90
2015,06,07,08,39,21.00
2015,06,07,08,40,21.10
2015,06,07,08,41,21.10
2015,06,07,08,42,21.20
2015,06,07,08,43,21.30
2015,06,07,08,44,21.30
2015,06,07,08,45,21.30
2015,06,07,08,46,21.30
2015,06,07,08,47,21.30
2015,06,07,08,48,21.40
2015,06,07,08,49,21.40
2015,06,07,08,50,21.40
2015,06,07,08,51,21.40
2015,06,07,08,52,21.40
2015,06,07,08,53,21.40
2015,06,07,08,54,21.40
2015,06,07,08,55,21.40
2015,06,07,08,56,21.40
2015,06,07,08,57,21.40
2015,06,07,08,58,21.40
2015,06,07,08,59,21.50
2015,06,07,09,00,21.50
2015,06,07,09,01,21.50
2015,06,07,09,02,21.50
2015,06,07,09,03,21.50
2015,06,07,09,04,21.60
2015,06,07,09,05,21.60
2015,06,07,09,06,21.60
2015,06,07,09,07,21.60
2015,06,07,09,08,21.60
2015,06,07,09,09,21.60
2015,06,07,09,10,21.70
2015,06,07,09,11,21.70
2015,06,07,09,12,21.70
2015,06,07,09,13,21.90
2015,06,07,09,14,21.90
2015,06,07,09,15,21.90
2015,06,07,09,16,21.90
2015,06,07,09,17,21.90
2015,06,07,09,18,21.80
2015,06,07,09,19,21.80
2015,06,07,09,20,21.80
2015,06,07,09,21,21.90
2015,06,07,09,22,21.90
2015,06,07,09,23,22.00
2015,06,07,09,24,22.10
2015,06,07,09,25,22.20
2015,06,07,09,26,22.30
2015,06,07,09,27,22.40
2015,06,07,09,28,22.40
2015,06,07,09,29,22.40
2015,06,07,09,30,22.50
2015,06,07,09,31,22.50
2015,06,07,09,32,22.50
2015,06,07,09,33,22.50
2015,06,07,09,34,22.50
2015,06,07,09,35,22.60
2015,06,07,09,36,22.70
2015,06,07,09,37,22.70
2015,06,07,09,38,22.80
2015,06,07,09,39,22.90
2015,06,07,09,40,23.00
2015,06,07,09,41,23.00
2015,06,07,09,42,22.90
2015,06,07,09,43,22.90
2015,06,07,09,44,23.00
2015,06,07,09,45,23.10
2015,06,07,09,46,23.20
2015,06,07,09,47,23.20
2015,06,07,09,48,23.30
2015,06,07,09,49,23.40
2015,06,07,09,50,23.40
2015,06,07,09,51,23.40
2015,06,07,09,52,23.40
2015,06,07,09,53,23.50
2015,06,07,09,54,23.60
2015,06,07,09,55,23.60
2015,06,07,09,56,23.70
2015,06,07,09,57,23.80
2015,06,07,09,58,23.80
2015,06,07,09,59,24.00
2015,06,07,10,00,24.10
2015,06,07,10,01,24.10
2015,06,07,10,02,24.10
2015,06,07,10,03,24.20
2015,06,07,10,04,24.20
2015,06,07,10,05,24.10
2015,06,07,10,06,24.10
2015,06,07,10,07,24.10
2015,06,07,10,08,24.20
2015,06,07,10,09,24.20
2015,06,07,10,10,24.20
2015,06,07,10,11,24.30
2015,06,07,10,12,24.40
2015,06,07,10,13,24.40
2015,06,07,10,14,24.50
2015,06,07,10,15,24.50
2015,06,07,10,16,24.60
2015,06,07,10,17,24.60
2015,06,07,10,18,24.50
2015,06,07,10,19,24.50
2015,06,07,10,20,24.50
2015,06,07,10,21,24.60
2015,06,07,10,22,24.60
2015,06,07,10,23,24.50
2015,06,07,10,24,24.50
2015,06,07,10,25,24.50
2015,06,07,10,26,24.50
2015,06,07,10,27,24.40
2015,06,07,10,28,24.40
2015,06,07,10,29,24.50
2015,06,07,10,30,24.50
2015,06,07,10,31,24.50
2015,06,07,10,32,24.60
2015,06,07,10,33,24.70
2015,06,07,10,34,24.70
2015,06,07,10,35,24.80
2015,06,07,10,36,24.90
2015,06,07,10,37,25.00
2015,06,07,10,38,25.10
2015,06,07,10,39,25.20
2015,06,07,10,40,25.20
2015,06,07,10,41,25.30
2015,06,07,10,42,25.30
2015,06,07,10,43,25.30
2015,06,07,10,44,25.30
2015,06,07,10,45,25.30
2015,06,07,10,46,25.30
2015,06,07,10,47,25.20
2015,06,07,10,48,25.30
2015,06,07,10,49,25.30
2015,06,07,10,50,25.30
2015,06,07,10,51,25.30
2015,06,07,10,52,25.40
2015,06,07,10,53,25.50
2015,06,07,10,54,25.60
2015,06,07,10,55,25.70
2015,06,07,10,56,25.90
2015,06,07,10,57,26.00
2015,06,07,10,58,26.20
2015,06,07,10,59,26.30
2015,06,07,11,00,26.30
2015,06,07,11,01,26.20
2015,06,07,11,02,26.20
2015,06,07,11,03,26.20
2015,06,07,11,04,26.10
2015,06,07,11,05,26.00
2015,06,07,11,06,26.00
2015,06,07,11,07,26.00
2015,06,07,11,08,26.10
2015,06,07,11,09,26.10
2015,06,07,11,10,26.10
2015,06,07,11,11,26.10
2015,06,07,11,12,26.10
2015,06,07,11,13,26.10
2015,06,07,11,14,26.20
2015,06,07,11,15,26.20
2015,06,07,11,16,26.30
2015,06,07,11,17,26.40
2015,06,07,11,18,26.50
2015,06,07,11,19,26.60
2015,06,07,11,20,26.60
2015,06,07,11,21,26.70
2015,06,07,11,22,26.80
2015,06,07,11,23,26.80
2015,06,07,11,24,26.90
2015,06,07,11,25,26.90
2015,06,07,11,26,27.00
2015,06,07,11,27,26.90
2015,06,07,11,28,26.90
2015,06,07,11,29,27.00
2015,06,07,11,30,27.10
2015,06,07,11,31,27.20
2015,06,07,11,32,27.30
2015,06,07,11,33,27.30
2015,06,07,11,34,27.30
2015,06,07,11,35,27.30
2015,06,07,11,36,27.30
2015,06,07,11,37,27.30
2015,06,07,11,38,27.30
2015,06,07,11,39,27.30
2015,06,07,11,40,27.30
2015,06,07,11,41,27.30
2015,06,07,11,42,27.30
2015,06,07,11,43,27.40
2015,06,07,11,44,27.50
2015,06,07,11,45,27.60
2015,06,07,11,46,27.70
2015,06,07,11,47,27.80
2015,06,07,11,48,27.90
2015,06,07,11,49,27.90
2015,06,07,11,50,27.90
2015,06,07,11,51,27.80
2015,06,07,11,52,27.80
2015,06,07,11,53,27.80
2015,06,07,11,54,27.80
2015,06,07,11,55,27.80
2015,06,07,11,56,27.80
2015,06,07,11,57,27.80
2015,06,07,11,58,27.80
2015,06,07,11,59,27.80
2015,06,07,12,00,27.80
2015,06,07,12,01,27.90
2015,06,07,12,02,27.90
2015,06,07,12,03,27.90
2015,06,07,12,04,28.00
2015,06,07,12,05,28.10
2015,06,07,12,06,28.10
2015,06,07,12,07,28.20
2015,06,07,12,08,28.30
2015,06,07,12,09,28.30
2015,06,07,12,10,28.40
2015,06,07,12,11,28.50
2015,06,07,12,12,28.60
2015,06,07,12,13,28.60
2015,06,07,12,14,28.70
2015,06,07,12,15,28.70
2015,06,07,12,16,28.70
2015,06,07,12,17,28.60
2015,06,07,12,18,28.70
2015,06,07,12,19,28.70
2015,06,07,12,20,28.70
2015,06,07,12,21,28.70
2015,06,07,12,22,28.70
2015,06,07,12,23,28.70
2015,06,07,12,24,28.80
2015,06,07,12,25,28.90
2015,06,07,12,26,29.00
2015,06,07,12,27,29.10
2015,06,07,12,28,29.10
2015,06,07,12,29,29.10
2015,06,07,12,30,29.10
2015,06,07,12,31,29.10
2015,06,07,12,32,29.10
2015,06,07,12,33,29.10
2015,06,07,12,34,29.10
2015,06,07,12,35,29.10
2015,06,07,12,36,29.10
2015,06,07,12,37,29.10
2015,06,07,12,38,29.10
2015,06,07,12,39,29.20
2015,06,07,12,40,29.20
2015,06,07,12,41,29.30
2015,06,07,12,42,29.40
2015,06,07,12,43,29.50
2015,06,07,12,44,29.50
2015,06,07,12,45,29.50
2015,06,07,12,46,29.60
2015,06,07,12,47,29.60
2015,06,07,12,48,29.60
2015,06,07,12,49,29.60
2015,06,07,12,50,29.60
2015,06,07,12,51,29.70
2015,06,07,12,52,29.70
2015,06,07,12,53,29.70
2015,06,07,12,54,29.70
2015,06,07,12,55,29.70
2015,06,07,12,56,29.70
2015,06,07,12,57,29.80
2015,06,07,12,58,29.80
2015,06,07,12,59,29.90
2015,06,07,13,00,29.90
2015,06,07,13,01,29.90
2015,06,07,13,02,29.90
2015,06,07,13,03,29.80
2015,06,07,13,04,29.90
2015,06,07,13,05,29.80
2015,06,07,13,06,29.70
2015,06,07,13,07,29.50
2015,06,07,13,08,29.40
2015,06,07,13,09,29.30
2015,06,07,13,10,29.30
2015,06,07,13,11,29.30
2015,06,07,13,12,29.30
2015,06,07,13,13,29.30
2015,06,07,13,14,29.30
2015,06,07,13,15,29.30
2015,06,07,13,16,29.40
2015,06,07,13,17,29.50
2015,06,07,13,18,29.60
2015,06,07,13,19,29.60
2015,06,07,13,20,29.60
2015,06,07,13,21,29.70
2015,06,07,13,22,29.80
2015,06,07,13,23,29.80
2015,06,07,13,24,29.80
2015,06,07,13,25,29.90
2015,06,07,13,26,29.90
2015,06,07,13,27,30.00
2015,06,07,13,28,30.10
2015,06,07,13,29,30.10
2015,06,07,13,30,30.20
2015,06,07,13,31,30.10
2015,06,07,13,32,30.00
2015,06,07,13,33,30.10
2015,06,07,13,34,30.20
2015,06,07,13,35,30.20
2015,06,07,13,36,30.20
2015,06,07,13,37,30.20
2015,06,07,13,38,30.30
2015,06,07,13,39,30.30
2015,06,07,13,40,30.40
2015,06,07,13,41,30.50
2015,06,07,13,42,30.50
2015,06,07,13,43,30.50
2015,06,07,13,44,30.40
2015,06,07,13,45,30.40
2015,06,07,13,46,30.30
2015,06,07,13,47,30.30
2015,06,07,13,48,30.40
2015,06,07,13,49,30.40
2015,06,07,13,50,30.50
2015,06,07,13,51,30.60
2015,06,07,13,52,30.70
2015,06,07,13,53,30.80
2015,06,07,13,54,31.00
2015,06,07,13,55,31.10
2015,06,07,13,56,31.10
2015,06,07,13,57,31.10
2015,06,07,13,58,31.20
2015,06,07,13,59,31.20
2015,06,07,14,00,31.10
2015,06,07,14,01,31.00
2015,06,07,14,02,30.90
2015,06,07,14,03,30.90
2015,06,07,14,04,30.80
2015,06,07,14,05,30.80
2015,06,07,14,06,30.80
2015,06,07,14,07,30.90
2015,06,07,14,08,30.90
2015,06,07,14,09,30.80
2015,06,07,14,10,30.80
2015,06,07,14,11,30.80
2015,06,07,14,12,30.80
2015,06,07,14,13,30.80
2015,06,07,14,14,30.90
2015,06,07,14,15,30.90
2015,06,07,14,16,30.90
2015,06,07,14,17,31.00
2015,06,07,14,18,31.10
2015,06,07,14,19,31.00
2015,06,07,14,20,30.90
2015,06,07,14,21,30.90
2015,06,07,14,22,30.80
2015,06,07,14,23,30.90
2015,06,07,14,24,30.90
2015,06,07,14,25,30.90
2015,06,07,14,26,31.10
2015,06,07,14,27,31.20
2015,06,07,14,28,31.20
2015,06,07,14,29,31.20
2015,06,07,14,30,31.30
2015,06,07,14,31,31.30
2015,06,07,14,32,31.30
2015,06,07,14,33,31.30
2015,06,07,14,34,31.30
2015,06,07,14,35,31.30
2015,06,07,14,36,31.30
2015,06,07,14,37,31.40
2015,06,07,14,38,31.40
2015,06,07,14,39,31.50
2015,06,07,14,40,31.50
2015,06,07,14,41,31.60
2015,06,07,14,42,31.60
2015,06,07,14,43,31.60
2015,06,07,14,44,31.50
2015,06,07,14,45,31.40
2015,06,07,14,46,31.40
2015,06,07,14,47,31.40
2015,06,07,14,48,31.40
2015,06,07,14,49,31.40
2015,06,07,14,50,31.40
2015,06,07,14,51,31.40
2015,06,07,14,52,31.30
2015,06,07,14,53,31.30
2015,06,07,14,54,31.20
2015,06,07,14,55,31.20
2015,06,07,14,56,31.30
2015,06,07,14,57,31.40
2015,06,07,14,58,31.40
2015,06,07,14,59,31.30
2015,06,07,15,00,31.30
2015,06,07,15,01,31.20
2015,06,07,15,02,31.20
2015,06,07,15,03,31.30
2015,06,07,15,04,31.40
2015,06,07,15,05,31.50
2015,06,07,15,06,31.70
2015,06,07,15,07,31.80
2015,06,07,15,08,31.80
2015,06,07,15,09,31.90
2015,06,07,15,10,31.90
2015,06,07,15,11,32.00
2015,06,07,15,12,32.00
2015,06,07,15,13,32.00
2015,06,07,15,14,32.00
2015,06,07,15,15,32.10
2015,06,07,15,16,32.10
2015,06,07,15,17,32.20
2015,06,07,15,18,32.20
2015,06,07,15,19,32.20
2015,06,07,15,20,32.20
2015,06,07,15,21,32.10
2015,06,07,15,22,31.90
2015,06,07,15,23,31.80
2015,06,07,15,24,31.80
2015,06,07,15,25,31.80
2015,06,07,15,26,31.80
2015,06,07,15,27,31.80
2015,06,07,15,28,31.80
2015,06,07,15,29,31.80
2015,06,07,15,30,31.90
2015,06,07,15,31,32.00
2015,06,07,15,32,32.10
2015,06,07,15,33,32.10
2015,06,07,15,34,32.10
2015,06,07,15,35,32.20
2015,06,07,15,36,32.20
2015,06,07,15,37,32.10
2015,06,07,15,38,32.10
2015,06,07,15,39,32.10
2015,06,07,15,40,32.10
2015,06,07,15,41,32.00
2015,06,07,15,42,32.00
2015,06,07,15,43,32.00
2015,06,07,15,44,32.00
2015,06,07,15,45,32.00
2015,06,07,15,46,32.00
2015,06,07,15,47,32.00
2015,06,07,15,48,32.00
2015,06,07,15,49,31.90
2015,06,07,15,50,31.90
2015,06,07,15,51,31.90
2015,06,07,15,52,31.80
2015,06,07,15,53,31.80
2015,06,07,15,54,31.90
2015,06,07,15,55,31.90
2015,06,07,15,56,32.00
2015,06,07,15,57,32.10
2015,06,07,15,58,32.10
2015,06,07,15,59,32.20
2015,06,07,16,00,32.20
2015,06,07,16,01,32.20
2015,06,07,16,02,32.10
2015,06,07,16,03,32.00
2015,06,07,16,04,31.90
2015,06,07,16,05,31.90
2015,06,07,16,06,31.80
2015,06,07,16,07,31.80
2015,06,07,16,08,31.90
2015,06,07,16,09,31.90
2015,06,07,16,10,31.80
2015,06,07,16,11,31.70
2015,06,07,16,12,31.70
2015,06,07,16,13,31.60
2015,06,07,16,14,31.60
2015,06,07,16,15,31.70
2015,06,07,16,16,31.70
2015,06,07,16,17,31.70
2015,06,07,16,18,31.70
2015,06,07,16,19,31.70
2015,06,07,16,20,31.70
2015,06,07,16,21,31.70
2015,06,07,16,22,31.70
2015,06,07,16,23,31.60
2015,06,07,16,24,31.50
2015,06,07,16,25,31.50
2015,06,07,16,26,31.50
2015,06,07,16,27,31.50
2015,06,07,16,28,31.50
2015,06,07,16,29,31.50
2015,06,07,16,30,31.50
2015,06,07,16,31,31.50
2015,06,07,16,32,31.50
2015,06,07,16,33,31.40
2015,06,07,16,34,31.40
2015,06,07,16,35,31.40
2015,06,07,16,36,31.40
2015,06,07,16,37,31.40
2015,06,07,16,38,31.50
2015,06,07,16,39,31.50
2015,06,07,16,40,31.60
2015,06,07,16,41,31.60
2015,06,07,16,42,31.70
2015,06,07,16,43,31.70
2015,06,07,16,44,31.60
2015,06,07,16,45,31.50
2015,06,07,16,46,31.50
2015,06,07,16,47,31.50
2015,06,07,16,48,31.50
2015,06,07,16,49,31.60
2015,06,07,16,50,31.70
2015,06,07,16,51,31.70
2015,06,07,16,52,31.80
2015,06,07,16,53,31.80
2015,06,07,16,54,31.80
2015,06,07,16,55,31.80
2015,06,07,16,56,31.80
2015,06,07,16,57,31.90
2015,06,07,16,58,31.90
2015,06,07,16,59,32.00
2015,06,07,17,00,32.00
2015,06,07,17,01,32.10
2015,06,07,17,02,32.10
2015,06,07,17,03,32.20
2015,06,07,17,04,32.20
2015,06,07,17,05,32.20
2015,06,07,17,06,32.20
2015,06,07,17,07,32.10
2015,06,07,17,08,32.10
2015,06,07,17,09,32.10
2015,06,07,17,10,32.10
2015,06,07,17,11,32.10
2015,06,07,17,12,32.10
2015,06,07,17,13,32.10
2015,06,07,17,14,32.20
2015,06,07,17,15,32.20
2015,06,07,17,16,32.10
2015,06,07,17,17,32.10
2015,06,07,17,18,32.00
2015,06,07,17,19,32.00
2015,06,07,17,20,32.00
2015,06,07,17,21,32.00
2015,06,07,17,22,32.00